Weather Roundup
Issued by NWS Chicago, IL

Home | Current Version | Previous Version | Text Only | Print | Product List | Glossary On
Versions: 1 2 3 4 5 6 7 8 9 10 11 12 13 14 15 16 17 18 19 20 21 22 23 24 25 26 27 28 29 30 31 32 33 34 35 36 37 38 39 40 41 42 43 44 45 46 47 48 49 50
510
NZUS59 KLOT 221512
HRRLOT

CHICAGO AREA WEATHER ROUNDUP
NATIONAL WEATHER SERVICE CHICAGO/ROMEOVILLE IL
1000 AM CDT FRI MAY 22 2015

NOTE: "FAIR" INDICATES FEW OR NO CLOUDS BELOW 12,000 FEET WITH NO
SIGNIFICANT WEATHER AND/OR OBSTRUCTIONS TO VISIBILITY.

* THESE STATIONS ARE NOT UNDER NWS QUALITY CONTROL. THEY ALSO MAY NOT
  REPORT WEATHER SUCH AS PRECIPITATION OR FOG.

ILZ005-006-012>014-019>023-221600-
NORTHEAST ILLINOIS

CITY           SKY/WX    TMP DP  RH WIND       PRES   REMARKS
OHARE          SUNNY     59  36  42 NE12      30.20R
MIDWAY         SUNNY     62  43  49 E10       30.20R
AURORA         SUNNY     65  42  43 E7        30.20R
LANSING*       SUNNY     60  46  59 N3        30.20R
JOLIET*        SUNNY     66  47  50 NE7       30.19S
WAUKEGAN       SUNNY     55  33  43 NE7       30.22R
DUPAGE AIRPORT SUNNY     61  36  39 NE7       30.20R
WHEELING       SUNNY     58  32  37 NE9       30.23R
KANKAKEE*      SUNNY     65  49  55 NE8       30.19S
MORRIS*        SUNNY     66  46  46 NE6       30.18R
LEWIS AIRPORT* SUNNY     63  42  47 NE3       30.19S
NORTHERLY IS     N/A     52  41  66 MISG        N/A
$$

WIZ051-052-058>065-066-070>072-221600-
SOUTHEAST WISCONSIN

CITY           SKY/WX    TMP DP  RH WIND       PRES   REMARKS
MILWAUKEE      SUNNY     53  30  41 NE9       30.24R
KENOSHA*       SUNNY     58  30  34 E10       30.23R
RACINE*        SUNNY     54  34  46 NE8       30.25R
BURLINGTON     SUNNY     57  33  39 E7        30.22S
WAUKESHA       SUNNY     55  28  35 E6        30.23S
WEST BEND      SUNNY     57  28  33 SE6       30.23S
$$

INZ001>003-010>013-019-020-221600-
NORTHWEST INDIANA

CITY           SKY/WX    TMP DP  RH WIND       PRES   REMARKS
GARY*          SUNNY     55  46  71 N7        30.21R
MICHIGAN CITY* NOT AVBL
RENSSELAER*    NOT AVBL
VALPARAISO     SUNNY     65  46  50 NE6       30.19R
$$

LMZ740>746-221600-
SOUTHERN LAKE MICHIGAN

STATION/POSITION TIME  SKY/WX   TEMP WIND        PRES    VSBY
                                AIR  DIR/SP/G
                 (UTC)          (F)  (DEG/KT/KT) (MB)    (MI)
HARRISON CRIB    1400            46  350/ 12/ 14   N/A
BURNHAM HARBOR   1500            53  360/  9/ 14   N/A
CALUMET HARBOR   1400            51  350/  7/ 10   N/A
BURNS HARBOR     1400            51  330/  6/  7 1022.7R
MICHIGAN CITY    1400            58   30/  7/  8   N/A
$$

ABBREVIATIONS USED IN REMARKS
   TC - TEMPERATURE IN CELSIUS
  WCI - WIND CHILL INDEX
   HX - HEAT INDEX
  VSB - VISIBILITY
$$



USA.gov is the U.S. government's official web portal to all federal, state and local government web resources and services.